Gallup, NM

3:38 PM MDT on May 25, 2017 (GMT -0600)
Gallup Municipal

Weather History for KGUP - October, 2012

Change the Weather History Date:

Thursday, October 18, 2012

  Actual Average Record
Temperature  
Mean Temperature 50 °F -  
Max Temperature 73 °F 64 °F 81 °F (2003)
Min Temperature 26 °F 28 °F 15 °F (1999)
Degree Days  
Heating Degree Days 16    
Moisture  
Dew Point 7 °F    
Average Humidity 22    
Maximum Humidity 37    
Minimum Humidity 10    
Precipitation  
Precipitation 0.00 in - - ()
Sea Level Pressure  
Sea Level Pressure 30.04 in    
Wind  
Wind Speed 4 mph (NNW)    
Max Wind Speed 16 mph    
Max Gust Speed 22 mph    
Visibility 10 miles    
Events      
Averages and records for this station are not official NWS values.
T = Trace of Precipitation, MM = Missing Value Source: NWS Daily Summary

Daily Weather History Graph

Daily Weather History Graph

Search for Another Location

Airport or City:

Trip Planner

Search our weather history database for the weather conditions in past years. The results will help you decide how hot, cold, wet, or windy it might be!

Date:

Astronomy

Oct. 18, 2012 Rise Set
Actual Time 7:24 AM MDT 6:35 PM MDT
Civil Twilight 6:58 AM MDT 7:00 PM MDT
Nautical Twilight 6:29 AM MDT 7:30 PM MDT
Astronomical Twilight 5:59 AM MDT 8:00 PM MDT
Moon 11:02 AM MDT (10/18) 9:20 PM MDT (10/18)
Length of Visible Light 12h 02m
Length of Day
11h 10m
Waxing Crescent, 15% of the Moon is Illuminated
Oct 18
Waxing Crescent
Oct 21
First Quarter
Oct 29
Full
Nov 6
Last Quarter
Nov 13
New

Hourly Weather History & Observations

Time (MDT) Temp. Windchill Dew Point Humidity Pressure Visibility Wind Dir Wind Speed Gust Speed Precip Events Conditions
12:53 AM 33.1 °F 30.0 °F 1.0 °F 26% 29.97 in 10.0 mi ENE 3.5 mph - N/A   Clear
1:53 AM 33.1 °F - 1.9 °F 27% 29.97 in 10.0 mi Calm Calm - N/A   Clear
2:53 AM 33.1 °F 28.7 °F 3.9 °F 29% 29.98 in 10.0 mi NE 4.6 mph - N/A   Clear
3:53 AM 28.0 °F 24.2 °F 1.0 °F 31% 30.00 in 10.0 mi East 3.5 mph - N/A   Clear
4:53 AM 26.1 °F - 1.9 °F 35% 30.03 in 10.0 mi Calm Calm - N/A   Clear
5:53 AM 30.9 °F - 3.9 °F 32% 30.02 in 10.0 mi Calm Calm - N/A   Clear
6:53 AM 26.1 °F - 3.0 °F 37% 30.11 in 10.0 mi Calm Calm - N/A   Clear
7:53 AM 28.0 °F - 3.0 °F 34% 30.18 in 10.0 mi Calm Calm - N/A   Clear
8:53 AM 39.9 °F 37.8 °F 5.0 °F 23% 30.14 in 10.0 mi NE 3.5 mph - N/A   Clear
9:53 AM 48.9 °F - 9.0 °F 20% 30.12 in 10.0 mi Calm Calm - N/A   Clear
10:53 AM 55.0 °F - 9.0 °F 16% 30.10 in 10.0 mi Calm Calm - N/A   Clear
11:53 AM 63.0 °F - 8.1 °F 11% 30.06 in 10.0 mi WNW 6.9 mph - N/A   Clear
12:53 PM 69.1 °F - 12.9 °F 11% 30.00 in 10.0 mi NW 13.8 mph 21.9 mph N/A   Clear
1:53 PM 71.1 °F - 12.9 °F 11% 29.96 in 10.0 mi NW 16.1 mph 21.9 mph N/A   Clear
2:53 PM 73.0 °F - 12.9 °F 10% 29.93 in 10.0 mi NW 16.1 mph - N/A   Clear
3:53 PM 72.0 °F - 10.9 °F 10% 29.98 in 10.0 mi WNW 12.7 mph - N/A   Clear
4:53 PM 71.1 °F - 12.0 °F 10% 29.99 in 10.0 mi NW 11.5 mph - N/A   Clear
5:53 PM 69.1 °F - 10.9 °F 11% 29.98 in 10.0 mi North 9.2 mph - N/A   Clear
6:53 PM 62.1 °F - 10.0 °F 13% 30.08 in 10.0 mi NW 11.5 mph - N/A   Clear
7:53 PM 57.9 °F - 10.9 °F 16% 30.11 in 10.0 mi NW 10.4 mph - N/A   Clear
8:53 PM 48.0 °F - 10.0 °F 22% 30.10 in 10.0 mi West 4.6 mph - N/A   Clear
9:53 PM 42.1 °F 39.2 °F 9.0 °F 26% 30.08 in 10.0 mi South 4.6 mph - N/A   Clear
10:53 PM 39.0 °F - 7.0 °F 27% 30.06 in 10.0 mi Calm Calm - N/A   Clear
11:53 PM 34.0 °F - 5.0 °F 30% 30.05 in 10.0 mi Calm Calm - N/A   Clear